Temp
32 31 29 30 31 32 31 30 31 29 28 27 27 27 27 28 29 30 29 29 29 29 28 29 28 28 28 27 27 27 27 27 27 26 25 25 26 25 25 25 25 24 25 24
32 29 31 32 32 32 30 30 29 29 29 27 28 28 28 27 27 28 28 30 29 30 27 29 28 28 27 28 28 27 27 27 27 26 26 26 26 26 26 25 25 25 25 24
30 32 33 33 33 31 30 29 27 30 28 26 26 27 27 28 27 28 28 28 30 30 28 28 28 28 27 27 27 28 27 27 27 26 26 25 26 25 25 25 25 25 25 24
30 33 34 33 32 31 28 31 31 31 28 27 28 25 24 26 27 27 29 28 31 31 30 30 28 28 27 27 29 28 28 27 27 27 27 26 26 25 26 25 25 25 25 24
31 33 33 32 33 32 33 33 32 30 30 27 27 26 25 24 26 28 29 29 31 31 29 30 29 28 28 28 28 28 28 28 28 27 27 27 27 26 26 26 25 25 24 24
31 32 34 33 34 34 36 32 31 29 24 24 29 28 27 25 28 29 31 31 32 31 30 30 30 28 28 28 28 28 28 28 28 27 26 27 27 26 25 25 25 24 23 24
30 31 32 34 35 34 34 29 27 26 23 27 27 29 29 28 31 30 32 31 33 32 30 30 30 29 28 28 28 27 28 27 27 28 27 27 26 26 26 26 25 24 24 26
28 28 33 34 34 33 33 29 27 30 26 29 29 30 33 31 34 32 32 30 31 32 32 30 30 30 28 28 27 27 27 27 28 28 28 28 27 26 26 25 25 25 26 27
27 29 32 34 34 33 33 31 29 29 26 28 28 30 31 32 32 32 29 30 29 30 32 31 31 31 29 28 28 27 27 27 27 28 28 27 27 27 26 25 26 26 27 26
29 29 32 33 35 34 33 32 32 25 30 30 28 29 28 31 31 30 31 31 30 30 32 32 31 32 30 29 28 28 27 27 27 27 28 27 27 26 26 25 25 26 26 26
28 28 33 34 31 33 31 32 29 26 26 27 27 28 28 30 31 31 32 32 32 31 31 33 32 32 31 30 29 28 27 26 26 26 27 27 27 26 26 26 25 25 25 24
30 26 29 31 32 31 31 33 28 26 29 25 25 28 33 31 31 31 32 32 35 32 31 33 33 32 31 30 29 27 26 26 26 26 27 27 26 26 26 26 26 25 26 26
30 27 31 32 30 32 33 31 29 24 23 27 27 28 31 30 30 33 32 33 33 30 31 33 32 31 31 30 28 27 26 26 26 26 26 26 26 26 26 26 26 25 26 27
30 26 30 32 30 31 33 33 30 28 25 27 26 30 32 31 32 33 32 31 33 33 32 33 32 31 30 28 27 26 26 26 26 26 26 26 26 26 26 26 26 26 26 26
25 29 29 30 30 35 35 33 32 30 29 30 30 30 30 32 32 31 32 32 34 33 32 32 32 30 29 27 27 26 26 26 26 26 26 26 27 27 26 26 26 26 26 26
24 27 29 33 33 34 34 33 32 33 32 31 31 31 31 33 33 33 31 32 33 32 32 32 31 30 28 27 27 26 26 27 26 26 25 26 27 27 27 26 27 27 26 26
25 25 25 28 31 31 31 33 34 33 32 33 31 32 34 33 32 31 31 33 33 32 32 32 32 30 30 28 28 27 26 27 26 26 26 27 27 26 27 27 27 26 26 27
26 25 23 26 28 30 30 32 33 34 34 31 33 32 33 31 30 31 31 30 31 33 32 32 32 32 31 29 28 28 27 26 26 26 27 27 27 27 27 27 27 27 27 26
23 23 25 27 24 29 32 33 33 33 33 33 31 31 31 30 31 30 31 31 31 29 28 31 33 33 31 30 28 27 26 26 26 27 27 27 28 27 27 27 27 27 27 26
20 19 22 24 28 29 30 32 31 32 30 30 32 32 30 31 30 28 31 30 29 29 29 30 32 33 31 30 28 27 26 26 26 27 28 28 28 27 26 27 27 27 27 27
23 22 23 21 24 26 28 29 31 31 29 30 32 31 30 30 29 28 29 30 30 30 31 32 33 31 31 30 28 27 27 26 27 27 27 27 27 27 27 27 27 27 27 26
24 23 22 22 24 26 29 31 31 29 31 31 31 31 30 28 27 27 29 29 30 31 32 31 31 31 30 29 28 27 27 27 27 27 27 27 26 26 26 26 26 26 26 25
24 24 23 24 24 23 26 30 29 29 30 32 32 33 31 30 30 28 28 29 30 31 30 30 31 29 29 28 29 28 27 27 26 25 26 26 26 26 26 25 25 25 25 24
19 20 21 22 22 21 22 25 26 30 31 32 33 33 33 32 29 28 28 28 28 29 30 30 29 28 28 28 28 28 26 26 25 26 25 26 25 25 24 25 25 24 23 22
18 19 19 20 21 20 22 21 21 24 28 32 32 33 33 30 29 28 27 27 27 27 28 28 26 25 26 27 27 27 26 26 26 25 25 24 24 24 24 24 24 23 23 23
21 19 18 20 19 17 19 20 20 21 21 22 31 31 31 30 28 27 26 26 25 25 26 25 25 25 25 26 27 28 28 28 26 24 24 23 24 24 23 23 23 23 23 23
Height
740 762 779 770 760 756 767 780 786 785 784 794 796 792 785 780 784 774 774 776 776 774 773 779 785 791 797 802 806 808 813 817 821 824 826 827 828 831 833 834 835 836 837 839
756 772 751 748 749 756 767 780 789 781 786 792 793 788 773 777 783 775 775 771 770 770 772 774 779 786 794 797 801 806 810 814 819 821 823 824 826 829 832 833 831 835 837 838
765 745 738 746 750 767 767 775 792 788 791 795 802 804 787 770 777 778 771 767 763 765 770 773 776 781 788 793 797 801 805 809 814 818 821 824 826 828 829 830 831 832 836 839
756 730 742 748 757 760 789 757 770 779 797 818 794 837 804 785 781 775 767 765 761 759 761 764 771 778 783 787 792 797 802 806 810 814 818 821 822 824 826 827 828 831 834 834
753 740 747 757 747 746 756 746 760 768 777 803 808 826 804 789 790 766 756 753 751 752 755 758 764 770 777 783 788 793 798 802 806 810 814 818 820 821 823 824 826 828 830 834
741 720 730 736 727 730 722 753 770 784 813 841 796 806 805 798 765 751 740 742 742 746 752 754 760 767 773 778 783 789 794 798 803 807 811 814 817 819 820 822 823 824 825 829
748 738 724 718 734 725 733 773 823 836 850 830 793 806 781 756 731 733 733 734 731 737 744 751 757 764 770 774 778 783 789 794 799 802 806 811 814 816 818 820 820 820 822 821
776 779 729 712 726 738 741 758 799 813 837 808 778 794 757 729 718 723 726 731 730 734 737 742 747 755 762 767 772 777 784 790 795 798 801 806 810 813 816 817 818 818 819 818
773 762 718 712 709 718 736 757 743 778 794 803 789 766 736 716 718 721 729 726 730 728 727 734 740 747 755 761 766 771 778 785 790 794 797 802 805 809 812 815 816 816 816 817
736 762 720 710 703 706 723 720 760 788 798 811 797 782 774 737 725 720 721 717 718 722 722 727 733 739 746 753 759 767 772 778 784 791 795 797 802 806 810 812 814 814 814 814
725 743 725 714 729 729 732 738 750 765 784 809 814 789 734 725 717 718 708 704 707 710 715 719 726 733 739 747 755 762 769 777 783 788 793 795 799 803 806 809 812 812 812 812
705 736 751 731 703 699 707 716 738 782 779 785 791 780 704 708 705 708 702 698 689 698 704 708 716 726 735 743 752 758 765 771 778 783 788 792 796 799 802 805 808 811 812 812
702 736 745 733 723 706 711 713 723 748 764 775 788 776 704 704 704 693 697 693 688 695 698 704 713 720 729 737 746 753 760 765 773 779 785 789 794 797 800 803 806 810 811 813
685 722 726 740 736 714 716 710 716 733 772 762 765 743 716 708 702 694 694 691 686 687 696 701 710 716 723 731 739 748 755 761 767 775 781 785 788 792 796 801 803 806 809 811
712 717 711 708 707 696 701 710 710 724 727 742 731 734 714 695 693 689 684 681 681 689 696 700 706 712 720 728 735 742 748 756 762 770 775 778 782 788 793 797 800 803 806 809
715 726 711 703 694 694 704 700 701 698 706 712 713 716 689 672 674 678 683 677 683 688 691 694 700 707 715 722 729 737 744 750 758 764 770 775 780 784 788 793 796 799 802 805
730 735 740 736 706 707 723 701 695 692 688 693 719 696 673 679 682 682 677 672 677 680 684 689 693 699 707 714 721 731 737 744 752 758 765 770 776 780 784 788 792 796 799 801
726 731 739 742 720 745 705 677 676 683 674 677 676 677 668 674 672 668 670 670 674 674 678 681 686 694 701 708 715 722 732 740 748 753 758 763 769 775 780 784 787 791 795 798
714 728 738 742 753 720 693 681 685 691 686 665 673 673 669 671 668 680 667 668 670 671 674 675 679 686 696 704 711 719 729 737 744 748 752 757 762 768 775 779 781 786 791 795
720 730 739 745 742 744 702 675 665 666 707 666 659 667 673 670 702 699 674 670 671 669 671 675 679 684 690 697 705 714 723 731 738 742 746 751 757 763 768 772 776 781 786 790
737 739 746 756 747 728 689 676 661 709 712 664 656 658 667 678 676 672 671 670 668 669 670 671 675 680 682 692 701 710 718 723 726 733 741 747 752 758 763 767 773 777 782 786
739 744 747 745 743 743 675 674 692 684 665 664 662 661 663 664 667 667 668 670 670 667 667 668 669 675 683 688 695 704 709 713 723 729 735 742 748 754 760 764 769 774 778 783
736 729 732 723 722 697 682 674 664 663 662 664 662 658 657 662 664 665 667 668 669 669 666 663 663 669 677 686 690 696 704 712 718 727 734 739 744 750 754 759 764 769 773 777
736 722 726 717 707 705 693 684 677 656 656 656 657 656 655 659 660 662 663 668 668 669 665 662 662 667 675 681 688 694 700 707 716 724 730 735 741 745 749 753 756 761 766 770
740 732 734 719 708 698 690 695 691 674 663 648 651 651 654 657 659 661 665 667 668 668 667 663 663 668 674 680 687 694 699 706 714 720 726 732 737 741 744 747 751 754 757 760
728 735 738 731 721 724 715 702 697 683 679 678 657 652 653 655 658 662 666 666 669 670 669 667 668 670 675 680 687 694 699 704 711 719 725 730 734 737 739 741 746 750 753 758
Wind_Speed
4 2 6 11 9 4 5 5 4 4 7 6 5 3 8 9 10 15 16 14 14 15 13 30 33 35 35 32 34 33 32 26 22 22 20 17 16 13 10 9 10 13 10 15
1 8 9 9 10 7 6 5 4 3 10 8 7 5 18 12 12 5 6 14 15 14 10 23 32 32 33 37 38 35 32 30 27 26 24 20 19 14 12 11 12 14 12 14
8 14 7 8 6 10 7 12 6 3 8 10 5 6 15 18 8 11 8 7 12 16 13 17 25 31 33 33 36 36 33 31 33 29 26 16 13 13 12 12 15 14 12 10
8 12 8 4 7 8 7 11 15 9 4 3 6 5 7 16 17 19 12 8 14 15 14 17 22 29 32 36 41 36 32 34 35 31 27 25 19 16 15 14 13 11 6 6
12 6 7 6 14 12 15 21 22 15 11 6 6 1 7 7 13 24 18 14 18 18 16 19 20 32 34 35 38 39 34 33 33 31 27 20 16 18 13 14 14 7 7 7
10 5 5 9 8 10 18 14 11 4 4 2 11 11 3 5 18 13 17 14 19 19 16 19 27 29 33 37 37 38 35 37 35 31 26 17 21 19 16 14 14 9 9 9
8 10 6 5 6 2 6 12 4 2 2 7 4 9 8 21 19 20 16 11 20 20 18 18 19 23 31 34 35 37 38 39 38 33 28 23 25 22 21 20 18 15 19 12
6 10 4 5 8 9 5 10 6 7 7 5 1 4 9 21 11 4 3 7 5 16 18 22 22 29 32 35 36 36 37 37 39 34 29 27 23 22 20 23 20 20 20 16
6 10 6 4 6 9 8 3 8 6 4 4 4 6 10 5 5 8 10 9 9 9 20 22 24 31 31 35 37 38 39 37 40 37 31 30 25 22 22 23 20 17 17 21
10 5 6 14 2 3 8 5 0 3 3 4 5 4 6 6 10 8 6 6 9 10 18 19 21 31 32 38 38 38 40 39 41 38 35 32 28 23 21 23 25 20 19 22
6 6 16 2 6 11 1 2 4 5 5 6 3 6 9 12 8 9 9 10 11 13 13 18 17 31 34 35 35 36 35 32 32 36 35 33 29 25 22 23 24 21 17 16
13 7 8 14 9 8 10 16 8 6 6 3 6 6 4 10 10 13 13 12 14 10 10 19 19 27 29 31 32 34 34 34 36 38 37 36 32 28 24 23 20 20 16 11
6 5 10 12 7 4 5 5 7 5 4 6 6 6 2 9 8 12 14 15 10 7 8 17 16 18 26 30 32 33 34 35 35 37 36 35 31 30 28 26 21 20 18 15
3 6 9 12 9 4 4 4 5 7 4 5 7 7 6 12 13 8 11 11 15 12 13 17 15 17 25 30 33 33 32 36 36 36 36 36 35 33 30 28 26 22 20 19
6 5 6 8 6 4 3 9 8 8 8 7 10 10 10 11 12 13 9 7 19 15 16 18 17 16 21 26 30 33 35 37 37 36 35 38 35 31 30 27 29 26 22 22
8 6 6 4 5 0 3 7 10 14 6 4 5 7 11 18 4 5 9 14 17 17 17 18 17 18 18 29 31 33 34 38 39 38 37 38 34 33 31 30 27 28 25 25
3 4 7 6 3 5 5 8 5 6 5 9 6 10 4 5 9 8 11 17 19 18 18 19 20 21 26 31 36 34 37 40 37 38 36 38 37 36 36 33 32 30 28 24
5 2 2 5 4 5 9 4 8 8 7 8 3 7 9 8 5 5 2 8 11 15 16 17 17 23 31 34 36 38 37 37 36 36 35 37 38 37 37 37 33 32 31 29
5 4 2 1 1 6 8 5 5 4 10 3 9 10 12 7 13 8 5 5 3 9 8 16 28 33 30 33 34 35 33 33 34 33 34 37 39 38 38 37 36 33 32 28
6 7 4 3 2 4 7 6 7 2 3 6 15 18 11 6 8 3 2 3 6 7 9 14 21 28 30 33 35 34 32 32 33 34 39 41 41 37 39 39 36 35 32 30
4 2 3 3 4 7 8 8 7 6 6 6 6 13 8 7 6 6 7 3 4 4 7 12 26 24 34 33 35 31 30 33 42 39 36 38 39 40 38 37 35 34 32 29
3 3 4 2 2 7 5 4 5 6 2 2 2 2 7 8 8 9 7 6 5 3 1 6 22 24 25 33 35 30 33 38 34 37 38 36 36 33 32 35 32 32 31 30
2 2 4 7 6 6 5 5 6 5 6 1 2 2 4 7 6 8 7 6 4 2 2 3 22 22 27 31 35 30 30 33 34 32 31 32 34 34 33 33 31 30 31 27
6 5 3 5 6 17 15 16 16 2 5 5 3 1 2 3 9 7 8 5 4 2 1 1 19 18 22 29 28 26 31 35 32 30 29 32 33 30 32 33 34 30 28 26
5 4 6 5 8 17 6 16 22 15 15 10 6 5 5 5 5 6 7 5 4 1 2 5 14 15 18 25 25 27 31 33 31 30 28 27 28 31 29 30 29 30 33 36
3 2 2 3 6 5 10 12 19 15 19 27 5 5 5 7 7 6 7 6 6 6 7 10 14 19 21 28 29 29 31 32 30 23 23 24 25 29 26 32 29 30 28 31
Wind_Direction
260 105 217 208 207 181 156 121 111 158 101 83 81 3 309 302 295 187 189 192 195 197 177 181 182 186 187 193 191 186 187 191 187 194 196 198 204 211 215 227 216 204 211 200
350 238 216 199 204 178 152 130 163 299 142 96 73 4 274 286 284 206 198 202 189 199 154 179 180 181 184 188 192 189 191 192 192 194 199 205 206 210 198 199 194 196 209 202
194 237 168 221 247 153 220 175 149 101 62 65 80 267 260 269 249 277 251 238 208 190 173 176 181 181 184 186 191 196 195 199 194 196 203 206 201 209 195 193 194 203 203 218
229 256 228 178 179 152 216 186 148 107 72 194 177 255 249 249 274 269 263 231 214 198 184 176 177 180 180 186 188 194 191 190 194 199 202 207 206 193 201 203 203 214 210 198
252 238 235 168 215 186 231 168 173 171 179 107 202 333 282 120 264 260 248 229 205 204 184 183 176 175 180 179 183 187 187 188 191 195 200 204 207 203 198 215 196 198 200 216
240 255 164 229 228 194 242 164 172 78 54 354 210 200 268 192 228 249 240 220 205 194 189 186 184 172 176 180 182 190 190 192 192 194 196 190 192 185 178 175 191 190 155 179
292 279 276 211 267 326 126 128 112 253 27 236 240 181 220 213 222 213 247 203 196 194 178 183 183 176 177 181 182 184 187 187 193 197 205 203 195 192 176 174 181 181 175 181
207 294 221 239 184 216 180 165 154 194 169 214 318 195 256 215 242 168 145 131 147 192 186 184 188 185 180 182 182 182 187 189 195 201 204 201 197 194 186 184 188 190 194 203
173 256 302 237 240 146 257 132 187 126 94 105 219 283 310 273 211 161 156 182 204 202 188 186 189 188 179 182 184 184 188 194 197 201 204 200 202 198 189 188 201 204 211 212
215 275 219 266 22 266 164 182 192 359 146 229 277 286 231 279 259 131 207 217 217 177 188 192 190 188 184 185 187 186 189 192 198 200 203 202 202 195 193 189 190 204 210 208
153 144 266 136 190 233 136 180 77 124 139 164 182 253 212 221 195 208 204 223 220 183 178 189 191 190 184 183 183 186 186 186 189 199 202 204 200 198 197 198 196 206 216 220
202 169 232 238 252 219 177 199 149 133 249 204 156 264 241 209 208 190 206 218 234 169 178 187 183 181 177 177 177 182 184 184 187 197 202 205 201 202 199 201 206 205 207 205
189 221 240 281 342 18 195 189 159 116 77 204 151 253 234 232 243 189 180 207 217 178 182 179 174 173 171 171 174 176 181 187 185 189 196 202 201 204 205 210 215 208 205 195
199 155 171 226 215 172 334 232 172 141 125 206 208 239 244 219 227 208 199 217 217 216 173 177 171 171 167 168 169 172 179 185 187 185 192 197 201 203 209 210 214 214 204 200
28 202 163 214 189 170 197 253 230 168 199 161 233 190 226 212 213 208 227 214 201 174 173 173 168 169 165 166 169 172 175 181 187 184 188 196 201 202 206 211 212 216 217 207
344 322 354 257 171 321 300 294 265 227 184 212 228 239 208 218 195 209 202 160 157 167 169 170 167 168 166 168 171 172 173 182 184 186 190 195 197 203 206 209 215 218 222 214
296 19 5 282 19 29 339 258 267 214 189 180 178 216 217 160 208 213 167 166 170 173 172 173 174 175 175 175 174 174 178 181 182 187 189 194 197 200 206 210 213 217 219 218
255 331 143 261 42 248 244 266 248 228 222 190 171 199 195 152 126 111 267 150 176 175 176 181 177 180 181 179 177 178 179 178 181 191 187 193 195 199 203 207 209 217 215 209
186 128 313 246 207 274 307 352 359 324 275 254 146 123 119 128 87 22 33 58 151 183 179 184 181 183 176 178 177 174 177 178 181 189 187 196 197 198 202 204 205 213 213 212
76 66 127 26 79 238 233 294 315 114 271 328 135 139 150 134 102 219 214 127 105 105 159 176 187 178 175 179 172 172 175 176 186 191 193 199 198 198 199 204 206 207 209 212
334 10 172 191 228 282 253 302 306 72 244 343 146 153 146 139 171 165 150 121 105 125 140 163 173 179 186 175 170 175 175 185 192 193 193 197 199 202 205 203 205 209 209 209
235 193 207 142 142 272 243 314 97 220 348 360 25 142 121 132 138 140 139 128 113 115 205 185 173 181 184 175 171 174 183 194 187 188 190 194 200 200 198 201 201 208 209 208
206 286 261 179 214 251 284 253 198 207 121 360 63 70 128 138 151 155 141 117 113 168 211 206 178 167 171 178 179 178 187 183 184 180 184 191 199 200 198 194 196 198 204 195
309 305 277 346 1 334 307 350 344 186 166 138 164 14 71 110 144 145 118 127 115 278 287 107 150 158 168 177 184 183 174 176 174 177 183 193 195 192 194 196 198 195 192 190
233 328 299 294 342 337 20 352 360 360 330 146 189 151 140 98 135 138 135 130 101 13 319 124 125 130 145 159 167 168 171 175 175 181 184 188 192 193 191 194 196 197 199 198
302 299 347 292 283 245 281 310 332 2 4 351 272 139 124 130 147 127 137 137 125 99 110 107 119 129 140 151 160 175 184 186 174 169 176 185 192 196 196 195 196 202 201 203